Tevel-6
1 50999U 22002R 24046.67709323 .00068640 00000-0 14932-2 0 9996
2 50999 97.3976 119.8515 0005626 78.4477 281.7402 15.44055556116104
Tevel-1
1 51013U 22002AF 24046.74889166 .00060627 00000-0 14126-2 0 9998
2 51013 97.3974 119.0154 0004971 86.6216 273.5600 15.42042717116051
IRIS-A
1 51044U 22002BN 24046.71964751 .00020358 00000-0 78714-3 0 9994
2 51044 97.4018 114.0802 0008074 104.1354 256.0782 15.26225616115719
Tevel-7
1 51062U 22002CG 24046.69053159 .00060958 00000-0 14176-2 0 9993
2 51062 97.3992 119.1183 0005099 86.1554 274.0276 15.42098459116048
Tevel-4
1 51063U 22002CH 24046.77650327 .00061061 00000-0 14276-2 0 9990
2 51063 97.3992 119.1475 0005066 85.5777 274.6048 15.41936926116050
Tevel-2
1 51069U 22002CP 24046.66400794 .00064875 00000-0 15051-2 0 9993
2 51069 97.3978 119.0031 0005157 87.7695 272.4143 15.42152136116046
SO-115
1 51080U 22002DA 24046.44933868 .00105840 00000-0 17687-2 0 9990
2 51080 97.4260 125.5694 0005515 107.4142 252.7713 15.51530505116275
SO-114
1 51081U 22002DB 24042.44227715 .00119066 00000-0 19882-2 0 9998
2 51081 97.4267 121.5210 0005808 124.3301 235.8501 15.51500694115668
OreSat0
1 52017U 22026K 24046.55288987 .00046323 00000-0 12103-2 0 9992
2 52017 97.5071 56.7788 0013484 306.9912 53.0098 15.38545651106776
Planetum 1
1 52738U 22057G 24046.32629678 .00036289 00000-0 12049-2 0 9996
2 52738 97.5522 169.2177 0005544 222.5351 137.5461 15.31118133 95714
Foresail-1
1 52766U 22057AL 24046.29539821 .00023414 00000-0 89812-3 0 9992
2 52766 97.5663 169.5958 0010037 199.8786 160.2062 15.26448056 95671
SNUGLITE 2
1 52899U 22065F 24046.35488073 .00002901 00000-0 61069-3 0 9999
2 52899 98.0977 190.0766 0007943 169.2964 190.8407 14.60223446 86335
IO-117
1 53106U 22080B 24043.52023407 -.00000003 00000-0 00000+0 0 9996
2 53106 70.1295 236.1834 0008299 131.4215 228.7158 6.42557813 37197
SelfieSat
1 53951U 22057BC 24046.29548150 .00054389 00000-0 14937-2 0 9994
2 53951 97.5557 171.1924 0006652 217.6975 142.3804 15.37031466 95815
FO-118
1 54684U 22167C 24046.73307812 .00029486 00000-0 12599-2 0 9999
2 54684 97.5872 189.5255 0011061 213.2869 146.7673 15.22762334 65620
SSS-2B
1 56184U 23054G 24046.76833321 .00030824 00000-0 98577-3 0 9993
2 56184 97.3846 304.4713 0006091 250.9650 109.0932 15.32356630 47344
CIRBE
1 56188U 23054L 24046.23696525 .00052574 00000-0 14286-2 0 9992
2 56188 97.3774 304.5155 0004468 234.5010 125.5818 15.37382287 47318
INSPIRE-Sat 7
1 56211U 23054AK 24046.67228985 .00045610 00000-0 11838-2 0 9991
2 56211 97.3812 305.8617 0008453 214.0260 146.0445 15.38808854 47434
RoseyCubesat 1
1 56212U 23054AL 24046.68641478 .00051337 00000-0 12688-2 0 9996
2 56212 97.3818 306.1705 0008352 210.3794 149.6969 15.40278966 47452
SO-120
1 56992U 23084BU 24046.54386737 .00028811 00000-0 13127-2 0 9993
2 56992 97.5185 165.4558 0015170 94.6255 265.6713 15.20522007 37506
MRC-100
1 56993U 23084BV 24046.49692931 .00031100 00000-0 13813-2 0 9991
2 56993 97.5189 165.5367 0014692 94.3799 265.9115 15.21386854 37517
UmKA 1 (RS40S)
1 57172U 23091G 24046.79747836 .00007730 00000-0 53532-3 0 9992
2 57172 97.6317 100.1346 0017545 172.9466 187.2011 15.05811314 35062
CubeBel-2 (EU11S)
1 57175U 23091K 24046.77774459 .00009891 00000-0 68224-3 0 9998
2 57175 97.6301 99.9961 0015675 186.4150 173.6878 15.05908440 35054
VERONIKA
1 58261U 23174F 24046.75564335 .00019651 00000-0 10208-2 0 9998
2 58261 97.4732 123.1015 0012533 313.6189 46.4004 15.16066016 15134
KAFASAT
1 58317U 23174BP 24046.64863214 .00022584 00000-0 11078-2 0 9991
2 58317 97.4679 123.1754 0011285 290.7075 69.2949 15.18062084 15132
ENSO
1 58470U 23185J 24046.69431833 .00016435 00000-0 79041-3 0 9999
2 58470 97.4431 115.0434 0013600 353.7404 6.3658 15.18792199 11527
EIRSAT-1
1 58472U 23185L 24046.82501142 .00018187 00000-0 87099-3 0 9995
2 58472 97.4424 115.1659 0013397 354.1023 6.0051 15.18918418 11546
SO-121
1 58567U 23174CY 24046.16283845 .00043243 00000-0 21002-2 0 9994
2 58567 97.4686 122.6163 0014178 301.7829 58.2024 15.18229594 15053
Clark sat-1 (AMBITIOUS)
1 58613U 98067WE 24046.77847982 .00177113 00000-0 18015-2 0 9998
2 58613 51.6349 198.9129 0008298 264.4028 95.6021 15.64018601 9302
BeliefSat-0
1 58695U 24001B 24046.77548465 .00263909 00000-0 89846-3 0 9999
2 58695 9.6644 84.5818 0004564 320.3055 39.6826 15.87665915 7212
/EX
1
0
15 Feb '24
The following satellites have been removed from this week's AMSAT-NA TLE distribution:
Lume-1 NORAD Cat ID 43908 Decayed from orbit on or about 13 February 2024
FEES NORAD Cat ID 48082 Decayed from orbit on or about 12 February 2024
1
0
08 Feb '24
The following satellites have been removed from this week's AMSAT-NA TLE distribution:
AO-92 NORAD Cat ID 43137 Decayed from orbit on or about 02 February 2024
NO-116 NORAD Cat ID 51031 Decayed from orbit on or about 04 February 2024
1
0
SB KEPS @ AMSAT $ORB24040.1
2Line Orbital Elements 24040.AMSAT
QST de W1STR
AMSAT Orbital Elements for Amateur Satellites in TLE Format
>From Orbital Analysis Office
New England Sci-Tech STEM Education Center
Natick, MA February 09, 2024
To all radio amateurs
These element sets describe the orbits of various satellites
in use by the amateur radio community. For details see:
www.amsat.org/keplerian-elements-formats/
A daily update of element sets is available at:
www.amsat.org/tle/daily-bulletin.txt
or without bulletin text:
www.amsat.org/tle/dailytle.txt
AO-07
1 07530U 74089B 24039.56503510 -.00000031 00000-0 95172-4 0 9999
2 07530 101.9718 33.0328 0012105 332.9909 140.2622 12.53671990252792
UO-11
1 14781U 84021B 24039.49938583 .00002563 00000-0 29898-3 0 9998
2 14781 97.6886 12.8575 0009147 135.8673 224.3274 14.86004136129222
AO-16
1 20439U 90005D 24039.57271662 .00000405 00000-0 16415-3 0 9995
2 20439 98.8987 41.0808 0009918 227.8556 247.4968 14.33274767778761
LO-19
1 20442U 90005G 24039.53633230 .00000398 00000-0 16086-3 0 9993
2 20442 98.8725 26.4705 0011264 201.0810 158.9911 14.33431935779208
AO-27
1 22825U 93061C 24039.71571309 .00000244 00000-0 11140-3 0 9999
2 22825 98.8091 91.0282 0009488 97.2003 263.0258 14.30422989584373
IO-26
1 22826U 93061D 24039.58855686 .00000286 00000-0 12665-3 0 9997
2 22826 98.8037 90.7610 0010004 84.4262 275.8061 14.30796627584361
FO-29
1 24278U 96046B 24039.43023577 -.00000039 00000-0 -49921-5 0 9991
2 24278 98.5660 351.1832 0350468 164.2309 197.0083 13.53171428356886
NOAA-15
1 25338U 98030A 24039.75907096 .00000358 00000-0 16645-3 0 9993
2 25338 98.5839 69.5038 0010009 348.8420 11.2537 14.26488812338989
GO-32
1 25397U 98043D 24039.46101350 .00000227 00000-0 11897-3 0 9998
2 25397 98.9044 4.3744 0001711 136.2400 223.8914 14.23981962328951
ISS
1 25544U 98067A 24039.70071581 .00018004 00000-0 32668-3 0 9998
2 25544 51.6393 237.0356 0002242 217.5704 188.1044 15.49651223438471
NO-44
1 26931U 01043C 24039.43355507 .00000389 00000-0 17863-3 0 9997
2 26931 67.0521 306.7311 0005177 272.1658 87.8851 14.31116726167380
